Regional Weather Roundup
Issued by NWS

Home | Current Version | Previous Version | Text Only | Print | Product List | Glossary Off
Versions: 1 2 3 4 5 6 7 8 9 10 11 12 13 14 15 16 17 18 19 20 21 22 23 24 25 26 27 28 29 30 31 32 33 34 35 36 37 38 39 40 41 42 43 44 45 46 47 48 49 50

000
ASUS43 KMKX 260220
RWRWI

WISCONSIN REGIONAL WEATHER ROUNDUP
NATIONAL WEATHER SERVICE MILWAUKEE/SULLIVAN WI
900 PM CDT THU MAY 25 2017

NOTE: "FAIR" INDICATES FEW OR NO CLOUDS BELOW 12,000 FEET WITH NO
SIGNIFICANT WEATHER AND/OR OBSTRUCTIONS TO VISIBILITY.

WIZ001-002-006>008-014>016-023>028-260300-
NORTHWEST WISCONSIN

CITY           SKY/WX    TMP DP  RH WIND       PRES   REMARKS
SUPERIOR ARPT  NOT AVBL
ASHLAND        MOCLDY    48  42  80 N5        29.72R
HAYWARD        CLOUDY    63  49  60 N6        29.70R
SIREN          PTCLDY    64  50  60 CALM      29.69R
CUMBERLAND     CLOUDY    61  54  77 CALM      29.70R
RICE LAKE      CLOUDY    65  52  62 CALM      29.70S
CHETEK         CLOUDY    63  55  75 CALM      29.70R
LADYSMITH      CLOUDY    63  55  73 CALM      29.71R
EAU CLAIRE     PTCLDY    66  51  58 SW3       29.69R
MENOMONIE      PTCLDY    65  51  59 CALM      29.69R
NEW RICHMOND   CLEAR     63  49  61 CALM      29.69S
OSCEOLA        CLOUDY    61  52  71 SE5       29.71S
$$

WIZ003>005-009-010-017-018-260300-
NORTH CENTRAL WISCONSIN

CITY           SKY/WX    TMP DP  RH WIND       PRES   REMARKS
MANITOWISH WTR PTCLDY    57  51  80 CALM      29.71R
ARBOR VITAE    CLEAR     63  48  58 CALM      29.72R
WOODRUFF       CLEAR     63  48  58 CALM      29.72R
RHINELANDER    CLEAR     63  49  60 CALM      29.72R
EAGLE RIVER    CLEAR     61  46  57 CALM      29.72R
LAND O LAKES   MOCLDY    60  47  63 CALM      29.74R
PHILLIPS       CLOUDY    64  52  64 S3        29.70R
TOMAHAWK       PTCLDY    58  51  79 CALM      29.72R
MEDFORD        CLOUDY    60  52  75 SE3       29.71R
MERRILL        PTCLDY    62  53  71 CALM      29.71R
$$

WIZ029-030-035-036-043>047-260300-
CENTRAL WISCONSIN

CITY           SKY/WX    TMP DP  RH WIND       PRES   REMARKS
WAUSAU         CLOUDY    63  52  67 E3        29.70R
MOSINEE        MOCLDY    63  52  67 CALM      29.72R
MARSHFIELD     MOCLDY    64  50  60 S3        29.69R
STEVENS POINT  PTCLDY    61  50  67 SE3       29.71R
WAUPACA        CLEAR     62  52  70 CALM      29.72R
WAUTOMA        PTCLDY    64  52  64 CALM      29.72R
WISC RAPIDS    CLEAR     58  53  84 CALM      29.71R
CAMP DOUGLAS   MOCLDY    60  55  84 S3        29.70R
$$

WIZ011>013-019>022-031-037>040-048>050-260300-
NORTHEAST WISCONSIN

CITY           SKY/WX    TMP DP  RH WIND       PRES   REMARKS
ANTIGO         PTCLDY    59  53  81 S3        29.73R
SHAWANO        CLEAR     60  52  74 CALM      29.71R
OCONTO         CLEAR     57  51  80 E3        29.73R
STURGEON BAY   CLEAR     55  51  86 NE5       29.74R
GREEN BAY      CLEAR     60  55  83 E5        29.72R
MANITOWOC      CLEAR     58  51  78 NE6       29.73R
APPLETON       PTCLDY    59  46  63 CALM      29.70R
CLINTONVILLE   MOCLDY    61  50  67 SE3       29.70S
OSHKOSH        CLEAR     60  54  80 CALM      29.71R
$$

WIZ032>034-041-042-053>061-260300-
SOUTHWEST WISCONSIN

CITY           SKY/WX    TMP DP  RH WIND       PRES   REMARKS
LA CROSSE      PTCLDY    67  53  61 S6        29.69R
SPARTA         MOCLDY    62  55  76 S3        29.71R
VIROQUA        PTCLDY    64  50  61 N3        29.71R
BOSCOBEL       CLEAR     60  55  83 CALM      29.71R
PRAIRIE DU CHI CLEAR     64  53  66 CALM      29.71R
PLATTEVILLE    CLEAR     64  55  71 CALM      29.72S
$$

WIZ056-057-062-063-064-067-068-260300-
SOUTH CENTRAL WISCONSIN

CITY           SKY/WX    TMP DP  RH WIND       PRES   REMARKS
REEDSBURG      MOCLDY    64  55  71 CALM      29.71R
BARABOO/DELLS  CLEAR     60  52  73 SE3       29.72R
LONE ROCK      CLEAR     62  53  72 E3        29.70R
MINERAL POINT  CLEAR     63  55  77 S5        29.72S
MADISON        PTCLDY    60  53  77 CALM      29.72R
MIDDLETON      CLEAR     61  54  77 CALM      29.73R
WATERTOWN      CLEAR     58  53  83 CALM      29.72R
MONROE         CLOUDY    64  52  63 S3        29.73R
JANESVILLE     MOCLDY    63  57  82 CALM      29.71R
$$

WIZ051-052-058>065-066-070>072-260300-
SOUTHEAST WISCONSIN

CITY           SKY/WX    TMP DP  RH WIND       PRES   REMARKS
MILWAUKEE      PTCLDY    57  51  80 N6        29.72R
WAUKESHA       CLEAR     55  50  82 CALM      29.73R
MILWAUKEE/TIMM CLEAR     57  48  72 CALM      29.73R
RACINE         CLEAR     55  50  83 N9        29.74R
KENOSHA        CLEAR     55  51  86 CALM      29.73R
FOND DU LAC    CLEAR     61  52  72 SE3       29.71R
SHEBOYGAN      CLEAR     52  52 100 N3        29.72R
WEST BEND      CLEAR     55  54  94 CALM      29.73R
JUNEAU         CLEAR     60  52  74 E3        29.73R
$$

LSZ147-162-260300-
LAKE SUPERIOR

STATION/POSITION TIME  TEMP    WIND        PRES    WAVE
                       AIR SEA DIR/SP/G            HT/PER
                 (UTC) (F)     (DEG/KT/KT) (MB)    (FT/S)
$$

LMZ867-665-643>646-260300-
LAKE MICHIGAN

STATION/POSITION TIME  TEMP    WIND        PRES    WAVE
                       AIR SEA DIR/SP/G            HT/PER
                 (UTC) (F)     (DEG/KT/KT) (MB)    (FT/S)
$$

TC  - TEMPERATURE IN CELSIUS
VSB - VISIBILITY IN STATUTE MILES
WCI - WIND CHILL INDEX
HX  - HEAT INDEX




USA.gov is the U.S. government's official web portal to all federal, state and local government web resources and services.